Location: Cuiry
(49.3858°N, 3.7708°E)
Time: 00:54:18
(UTC+00:00)

NOSS 3-1 (C) - Pass Details

Date: 12 January 2026
Orbit: 618 x 1583 km, 63.4° (Epoch: 10 January)

Event Time Altitude Azimuth Distance (km) Brightness Sun altitude
Rises 19:56:04 0° 317° (NW) 3,664 7.1 -36.0°
Reaches altitude 10° 19:58:24 10° 319° (NW) 2,839 6.4 -36.4°
Enters shadow 20:03:04 50° 328° (NNW) 1,458 4.4 -37.1°
